Weather in Solton

Russia / Altai Krai     52°50′47″N   86°28′32″E
temp.,
°C
wind,
m/s
gust,
m/s
humid.,
%
clouds,
%
prec.,
mm/h
press.,
hPa
HPBL,
m
7 march, sun
sun701:00−5ssw2283100 0.0 101827
04:00−5ssw1287100 0.0 101722
07:00−6s2389100 0.0 101834
10:00−4sw41283100 0.0 1019706
13:00−2wsw51179100 0.0 1020827
16:00−1sw5986100 0.0 1020849
19:00−2sw3793100 0.1 1022255
22:00−4ssw2294100 0.0 102332
8 march, mon
mon801:00−5s1292100 0.0 102321
04:00−5e1190100 0.0 102121
07:00−6e128798 0.0 102121
10:00−3se128585 0.0 1017111
13:00+1sse149777 0.0 1014276
16:00+1ssw1310083 0.0 1013192
19:000s229891 0.0 101444
22:00−1ssw31286100 0.0 1015522
9 march, tue
tue901:000wsw61587100 0.0 1017823
04:000w61197100 0.9 1020717
07:00−4w4991100 1.6 1025611
10:00−8wsw369097 0.0 1028314
13:00−5sw247996 0.0 1028420
16:00−3sw127366 0.0 1026399
19:00−6ese118674 0.0 102621
22:00−7e119113 0.0 102521
10 march, wed
wed1001:00−8ese118949 0.0 102321
04:00−8sse118970 0.0 102121
07:00−7se129084 0.0 102023
10:00−3se118777 0.0 1018101
13:00+1ese129340 0.0 1015182
16:00+1e239959 0.0 1012142
19:00−2e239357 0.0 101057
22:00−3se229237 0.0 100847
11 march, thu
thu1101:00−1sse248968 0.0 100692
04:000w3884100 0.0 1006141
07:00+2wsw71693100 0.3 1010906
10:00−4wsw51187100 0.0 1015778
13:00−3sw4784100 0.1 1017778
16:00−2wsw4788100 0.1 1018671
19:00−3sw3787100 0.3 1020457
22:00−5ssw2595100 0.1 1022150